{"data":{"norad_id":39020,"epoch":"2026-05-25T04:04:45.331104Z","epoch_age_seconds":63908,"freshness":"FRESH","line1":"1 39020U 12069A   26145.16996911 -.00000046  00000+0  00000+0 0  9991","line2":"2 39020   0.0675  13.5765 0004408  42.1265 318.7489  1.00271634 49273","mean_motion":1.00271634,"eccentricity":0.0004408,"inclination_deg":0.0675,"raan_deg":13.5765,"arg_perigee_deg":42.1265,"mean_anomaly_deg":318.7489,"bstar":0,"rev_number":4927,"period_min":1436.0990666613,"perigee_km":35768.051059517,"apogee_km":35805.223524533,"semimajor_km":42164.774292025,"source":"CELESTRAK","updated_at":"2026-05-25T13:38:13.939681Z"}}